Time,TemperatureF,DewpointF,PressureIn,WindDirection,WindDirectionDegrees,WindSpeedMPH,WindSpeedGustMPH,Humidity,HourlyPrecipIn,Conditions,Clouds,dailyrainin,SoftwareType,DateUTC
2013-06-21 00:01:00,72.5,58.3,30.00,South,180,0.0,0.0,61,0.00,RA,,0.00,WeatherDisplay:10.37,2013-06-21 05:01:00,
2013-06-21 00:06:00,72.3,58.1,30.00,South,180,0.0,0.0,61,0.00,RA,,0.00,WeatherDisplay:10.37,2013-06-21 05:06:00,
2013-06-21 00:11:00,72.3,58.6,30.03,South,180,0.0,0.0,62,0.00,CLR,,0.00,WeatherDisplay:10.37,2013-06-21 05:11:00,
2013-06-21 00:16:00,72.3,58.6,30.03,South,180,0.0,0.0,62,0.00,CLR,,0.00,WeatherDisplay:10.37,2013-06-21 05:16:00,
2013-06-21 00:21:00,72.1,58.4,30.03,South,180,0.0,0.0,62,0.00,CLR,,0.00,WeatherDisplay:10.37,2013-06-21 05:21:00,
2013-06-21 00:26:00,72.1,58.8,30.03,South,180,0.0,0.0,63,0.00,CLR,,0.00,WeatherDisplay:10.37,2013-06-21 05:26:00,
2013-06-21 00:31:00,72.1,58.8,30.03,South,180,0.0,0.0,63,0.00,CLR,,0.00,WeatherDisplay:10.37,2013-06-21 05:31:00,
2013-06-21 00:36:00,72.1,59.3,30.03,South,180,0.0,0.0,64,0.00,CLR,,0.00,WeatherDisplay:10.37,2013-06-21 05:36:00,
2013-06-21 00:41:00,72.0,59.1,30.03,South,180,0.0,0.0,64,0.00,CLR,,0.00,WeatherDisplay:10.37,2013-06-21 05:41:00,
2013-06-21 00:46:00,72.0,59.1,30.03,South,180,0.0,0.0,64,0.00,CLR,,0.00,WeatherDisplay:10.37,2013-06-21 05:46:00,
2013-06-21 00:51:00,71.8,58.9,30.03,South,180,0.0,0.0,64,0.00,CLR,,0.00,WeatherDisplay:10.37,2013-06-21 05:51:00,
2013-06-21 00:56:00,71.8,59.4,30.00,South,180,0.0,0.0,65,0.00,CLR,,0.00,WeatherDisplay:10.37,2013-06-21 05:56:00,
2013-06-21 01:01:00,71.6,59.2,30.00,South,180,0.0,0.0,65,0.00,CLR,,0.00,WeatherDisplay:10.37,2013-06-21 06:01:00,
2013-06-21 01:06:00,71.6,59.2,30.00,South,180,0.0,0.0,65,0.00,CLR,,0.00,WeatherDisplay:10.37,2013-06-21 06:06:00,
2013-06-21 01:11:00,71.4,59.5,30.03,South,180,0.0,0.0,66,0.00,CLR,,0.00,WeatherDisplay:10.37,2013-06-21 06:11:00,
2013-06-21 01:16:00,71.4,59.9,30.03,South,180,0.0,0.0,67,0.00,CLR,,0.00,WeatherDisplay:10.37,2013-06-21 06:16:00,
2013-06-21 01:21:00,71.4,59.9,30.03,South,180,0.0,0.0,67,0.00,CLR,,0.00,WeatherDisplay:10.37,2013-06-21 06:21:00,
2013-06-21 01:26:00,71.2,59.7,30.03,South,180,0.0,0.0,67,0.00,CLR,,0.00,WeatherDisplay:10.37,2013-06-21 06:26:00,
2013-06-21 01:31:00,71.2,60.1,30.03,South,180,0.0,0.0,68,0.00,CLR,,0.00,WeatherDisplay:10.37,2013-06-21 06:31:00,
2013-06-21 01:36:00,71.2,60.1,30.03,South,180,0.0,0.0,68,0.00,CLR,,0.00,WeatherDisplay:10.37,2013-06-21 06:36:00,
2013-06-21 01:41:00,71.2,60.1,30.00,South,180,0.0,0.0,68,0.00,CLR,,0.00,WeatherDisplay:10.37,2013-06-21 06:41:00,
2013-06-21 01:46:00,71.2,61.0,30.00,South,180,0.0,0.0,70,0.00,CLR,,0.00,WeatherDisplay:10.37,2013-06-21 06:46:00,
2013-06-21 01:51:00,71.2,60.5,30.00,South,180,0.0,0.0,69,0.00,CLR,,0.00,WeatherDisplay:10.37,2013-06-21 06:51:00,
2013-06-21 01:56:00,71.1,60.4,30.03,South,180,0.0,0.0,69,0.00,CLR,,0.00,WeatherDisplay:10.37,2013-06-21 06:56:00,
2013-06-21 02:01:00,71.1,60.4,30.03,South,180,0.0,0.0,69,0.00,CLR,,0.00,WeatherDisplay:10.37,2013-06-21 07:01:00,
2013-06-21 02:06:00,71.1,60.8,30.03,South,180,0.0,0.0,70,0.00,CLR,,0.00,WeatherDisplay:10.37,2013-06-21 07:06:00,
2013-06-21 02:11:00,70.9,60.6,30.03,South,180,0.0,0.0,70,0.00,CLR,,0.00,WeatherDisplay:10.37,2013-06-21 07:11:00,
2013-06-21 02:16:00,70.9,60.6,30.03,South,180,0.0,0.0,70,0.00,CLR,,0.00,WeatherDisplay:10.37,2013-06-21 07:16:00,
2013-06-21 02:21:00,70.9,61.0,30.03,South,180,0.0,0.0,71,0.00,CLR,,0.00,WeatherDisplay:10.37,2013-06-21 07:21:00,
2013-06-21 02:26:00,70.9,61.0,30.03,South,180,0.0,0.0,71,0.00,CLR,,0.00,WeatherDisplay:10.37,2013-06-21 07:26:00,
2013-06-21 02:31:00,70.9,61.0,30.03,South,180,0.0,0.0,71,0.00,CLR,,0.00,WeatherDisplay:10.37,2013-06-21 07:31:00,
2013-06-21 02:36:00,70.7,60.8,30.03,South,180,0.0,0.0,71,0.00,CLR,,0.00,WeatherDisplay:10.37,2013-06-21 07:36:00,
2013-06-21 02:41:00,70.5,60.7,30.03,South,180,0.0,0.0,71,0.00,CLR,,0.00,WeatherDisplay:10.37,2013-06-21 07:41:00,
2013-06-21 02:46:00,70.5,60.7,30.03,South,180,0.0,0.0,71,0.00,CLR,,0.00,WeatherDisplay:10.37,2013-06-21 07:46:00,
2013-06-21 02:52:00,70.3,60.9,30.03,South,180,0.0,0.0,72,0.00,CLR,,0.00,WeatherDisplay:10.37,2013-06-21 07:52:00,
2013-06-21 02:57:00,70.3,60.9,30.03,South,180,0.0,0.0,72,0.00,CLR,,0.00,WeatherDisplay:10.37,2013-06-21 07:57:00,
2013-06-21 03:02:00,70.3,61.3,30.03,South,180,0.0,0.0,73,0.00,CLR,,0.00,WeatherDisplay:10.37,2013-06-21 08:02:00,
2013-06-21 03:07:00,70.2,61.1,30.03,South,180,0.0,0.0,73,0.00,CLR,,0.00,WeatherDisplay:10.37,2013-06-21 08:07:00,
2013-06-21 03:12:00,70.2,61.1,30.03,South,180,0.0,0.0,73,0.00,CLR,,0.00,WeatherDisplay:10.37,2013-06-21 08:12:00,
2013-06-21 03:17:00,70.2,61.5,30.03,South,180,0.0,0.0,74,0.00,CLR,,0.00,WeatherDisplay:10.37,2013-06-21 08:17:00,
2013-06-21 03:22:00,70.2,61.5,30.03,South,180,0.0,0.0,74,0.00,CLR,,0.00,WeatherDisplay:10.37,2013-06-21 08:22:00,
2013-06-21 03:27:00,70.2,61.5,30.03,South,180,0.0,0.0,74,0.00,CLR,,0.00,WeatherDisplay:10.37,2013-06-21 08:27:00,
2013-06-21 03:32:00,70.2,61.5,30.03,South,180,0.0,0.0,74,0.00,CLR,,0.00,WeatherDisplay:10.37,2013-06-21 08:32:00,
2013-06-21 03:37:00,70.2,61.9,30.03,South,180,0.0,0.0,75,0.00,CLR,,0.00,WeatherDisplay:10.37,2013-06-21 08:37:00,
2013-06-21 03:42:00,70.2,61.5,30.03,South,180,0.0,0.0,74,0.00,CLR,,0.00,WeatherDisplay:10.37,2013-06-21 08:42:00,
2013-06-21 03:47:00,70.2,61.9,30.03,South,180,0.0,0.0,75,0.00,CLR,,0.00,WeatherDisplay:10.37,2013-06-21 08:47:00,
2013-06-21 03:52:00,70.0,61.3,30.03,South,180,0.0,0.0,74,0.00,CLR,,0.00,WeatherDisplay:10.37,2013-06-21 08:52:00,
2013-06-21 03:57:00,70.0,61.3,30.03,South,180,0.0,0.0,74,0.00,CLR,,0.00,WeatherDisplay:10.37,2013-06-21 08:57:00,
2013-06-21 04:02:00,69.8,61.1,30.03,South,180,0.0,0.0,74,0.00,CLR,,0.00,WeatherDisplay:10.37,2013-06-21 09:02:00,
2013-06-21 04:07:00,69.8,61.1,30.03,South,180,0.0,0.0,74,0.00,CLR,,0.00,WeatherDisplay:10.37,2013-06-21 09:07:00,
2013-06-21 04:12:00,69.6,61.0,30.00,South,180,0.0,0.0,74,0.00,CLR,,0.00,WeatherDisplay:10.37,2013-06-21 09:12:00,
2013-06-21 04:17:00,69.4,60.8,30.00,South,180,0.0,0.0,74,0.00,CLR,,0.00,WeatherDisplay:10.37,2013-06-21 09:17:00,
2013-06-21 04:22:00,69.4,60.8,30.00,South,180,0.0,0.0,74,0.00,CLR,,0.00,WeatherDisplay:10.37,2013-06-21 09:22:00,
2013-06-21 04:27:00,69.4,61.2,30.03,South,180,0.0,0.0,75,0.00,CLR,,0.00,WeatherDisplay:10.37,2013-06-21 09:27:00,
2013-06-21 04:32:00,69.4,61.2,30.03,South,180,0.0,0.0,75,0.00,CLR,,0.00,WeatherDisplay:10.37,2013-06-21 09:32:00,
2013-06-21 04:37:00,69.4,61.5,30.03,South,180,0.0,0.0,76,0.00,CLR,,0.00,WeatherDisplay:10.37,2013-06-21 09:37:00,
2013-06-21 04:42:00,69.3,61.4,30.03,South,180,0.0,0.0,76,0.00,CLR,,0.00,WeatherDisplay:10.37,2013-06-21 09:42:00,
2013-06-21 04:47:00,69.3,61.4,30.03,South,180,0.0,0.0,76,0.00,CLR,,0.00,WeatherDisplay:10.37,2013-06-21 09:47:00,
2013-06-21 04:52:00,69.3,61.4,30.03,South,180,0.0,0.0,76,0.00,CLR,,0.00,WeatherDisplay:10.37,2013-06-21 09:52:00,
2013-06-21 04:57:00,69.3,61.4,30.03,South,180,0.0,0.0,76,0.00,CLR,,0.00,WeatherDisplay:10.37,2013-06-21 09:57:00,
2013-06-21 05:02:00,69.3,61.4,30.03,South,180,0.0,0.0,76,0.00,CLR,,0.00,WeatherDisplay:10.37,2013-06-21 10:02:00,
2013-06-21 05:07:00,69.3,61.4,30.03,South,180,0.0,0.0,76,0.00,CLR,,0.00,WeatherDisplay:10.37,2013-06-21 10:07:00,
2013-06-21 05:12:00,69.3,61.7,30.03,South,180,0.0,0.0,77,0.00,CLR,,0.00,WeatherDisplay:10.37,2013-06-21 10:12:00,
2013-06-21 05:17:00,69.3,61.7,30.03,South,180,0.0,0.0,77,0.00,CLR,,0.00,WeatherDisplay:10.37,2013-06-21 10:17:00,
2013-06-21 05:22:00,69.4,62.3,30.03,South,180,0.0,0.0,78,0.00,CLR,,0.00,WeatherDisplay:10.37,2013-06-21 10:22:00,
2013-06-21 05:27:00,69.4,62.3,30.03,South,180,0.0,0.0,78,0.00,CLR,,0.00,WeatherDisplay:10.37,2013-06-21 10:27:00,
2013-06-21 05:32:00,69.4,62.3,30.03,South,180,0.0,0.0,78,0.00,CLR,,0.00,WeatherDisplay:10.37,2013-06-21 10:32:00,
2013-06-21 05:37:00,69.4,62.3,30.03,South,180,0.0,0.0,78,0.00,CLR,,0.00,WeatherDisplay:10.37,2013-06-21 10:37:00,
2013-06-21 05:42:00,69.4,62.3,30.03,South,180,0.0,0.0,78,0.00,CLR,,0.00,WeatherDisplay:10.37,2013-06-21 10:42:00,
2013-06-21 05:47:00,69.4,62.3,30.03,South,180,0.0,0.0,78,0.00,CLR,,0.00,WeatherDisplay:10.37,2013-06-21 10:47:00,
2013-06-21 05:52:00,69.4,62.3,30.03,South,180,0.0,0.0,78,0.00,CLR,,0.00,WeatherDisplay:10.37,2013-06-21 10:52:00,
2013-06-21 05:57:00,69.4,62.3,30.03,South,180,0.0,0.0,78,0.00,CLR,,0.00,WeatherDisplay:10.37,2013-06-21 10:57:00,
2013-06-21 06:02:00,69.3,62.1,30.03,South,180,0.0,0.0,78,0.00,CLR,,0.00,WeatherDisplay:10.37,2013-06-21 11:02:00,
2013-06-21 06:07:00,69.3,62.1,30.03,South,180,0.0,0.0,78,0.00,CLR,,0.00,WeatherDisplay:10.37,2013-06-21 11:07:00,
2013-06-21 06:12:00,69.3,62.1,30.03,South,180,0.0,0.0,78,0.00,CLR,,0.00,WeatherDisplay:10.37,2013-06-21 11:12:00,
2013-06-21 06:17:00,69.3,62.1,30.03,South,180,0.0,0.0,78,0.00,CLR,,0.00,WeatherDisplay:10.37,2013-06-21 11:17:00,
2013-06-21 06:22:00,69.1,61.9,30.03,South,180,0.0,0.0,78,0.00,CLR,,0.00,WeatherDisplay:10.37,2013-06-21 11:22:00,
2013-06-21 06:27:00,68.9,61.4,30.03,South,180,0.0,0.0,77,0.00,CLR,,0.00,WeatherDisplay:10.37,2013-06-21 11:27:00,
2013-06-21 06:32:00,68.9,61.4,30.03,South,180,0.0,0.0,77,0.00,CLR,,0.00,WeatherDisplay:10.37,2013-06-21 11:32:00,
2013-06-21 06:37:00,68.9,61.8,30.03,South,180,0.0,0.0,78,0.00,CLR,,0.00,WeatherDisplay:10.37,2013-06-21 11:37:00,
2013-06-21 06:42:00,69.1,62.3,30.06,South,180,0.0,0.0,79,0.00,CLR,,0.00,WeatherDisplay:10.37,2013-06-21 11:42:00,
2013-06-21 06:47:00,69.1,62.3,30.06,South,180,0.0,0.0,79,0.00,CLR,,0.00,WeatherDisplay:10.37,2013-06-21 11:47:00,
2013-06-21 06:52:00,69.3,62.5,30.06,South,180,0.0,0.0,79,0.00,CLR,,0.00,WeatherDisplay:10.37,2013-06-21 11:52:00,
2013-06-21 06:57:00,69.3,62.8,30.03,South,180,0.0,0.0,80,0.00,CLR,,0.00,WeatherDisplay:10.37,2013-06-21 11:57:00,
2013-06-21 07:02:00,69.4,63.0,30.03,South,180,0.0,0.0,80,0.00,CLR,,0.00,WeatherDisplay:10.37,2013-06-21 12:02:00,
2013-06-21 07:07:00,69.6,63.2,30.03,South,180,0.0,0.0,80,0.00,CLR,,0.00,WeatherDisplay:10.37,2013-06-21 12:07:00,
2013-06-21 07:12:00,69.6,63.5,30.06,South,180,0.0,0.0,81,0.00,CLR,,0.00,WeatherDisplay:10.37,2013-06-21 12:12:00,
2013-06-21 07:17:00,69.8,63.7,30.06,South,180,0.0,0.0,81,0.00,CLR,,0.00,WeatherDisplay:10.37,2013-06-21 12:17:00,
2013-06-21 07:22:00,70.0,63.9,30.06,South,180,0.0,0.0,81,0.00,CLR,,0.00,WeatherDisplay:10.37,2013-06-21 12:22:00,
2013-06-21 07:27:00,70.2,64.4,30.06,South,180,0.0,0.0,82,0.00,CLR,,0.00,WeatherDisplay:10.37,2013-06-21 12:27:00,
2013-06-21 07:32:00,70.3,64.9,30.06,South,180,0.0,0.0,83,0.00,CLR,,0.00,WeatherDisplay:10.37,2013-06-21 12:32:00,
2013-06-21 07:37:00,70.7,65.3,30.06,South,180,0.0,0.0,83,0.00,CLR,,0.00,WeatherDisplay:10.37,2013-06-21 12:37:00,
2013-06-21 07:42:00,71.1,66.0,30.06,South,180,0.0,0.0,84,0.00,CLR,,0.00,WeatherDisplay:10.37,2013-06-21 12:42:00,
2013-06-21 07:47:00,71.2,66.5,30.06,South,180,0.0,0.0,85,0.00,CLR,,0.00,WeatherDisplay:10.37,2013-06-21 12:47:00,
2013-06-21 07:52:00,71.6,66.8,30.06,South,180,0.0,0.0,85,0.00,CLR,,0.00,WeatherDisplay:10.37,2013-06-21 12:52:00,
2013-06-21 07:57:00,71.8,67.0,30.06,South,180,0.0,0.0,85,0.00,CLR,,0.00,WeatherDisplay:10.37,2013-06-21 12:57:00,
2013-06-21 08:02:00,72.1,67.4,30.06,South,180,0.0,0.0,85,0.00,CLR,,0.00,WeatherDisplay:10.37,2013-06-21 13:02:00,
2013-06-21 08:07:00,72.3,67.6,30.06,South,180,0.0,0.0,85,0.00,CLR,,0.00,WeatherDisplay:10.37,2013-06-21 13:07:00,
2013-06-21 08:12:00,72.9,68.4,30.06,South,180,0.0,0.0,86,0.00,CLR,,0.00,WeatherDisplay:10.37,2013-06-21 13:12:00,
2013-06-21 08:17:00,73.2,68.8,30.06,South,180,0.0,0.0,86,0.00,CLR,,0.00,WeatherDisplay:10.37,2013-06-21 13:17:00,
2013-06-21 08:22:00,73.6,69.1,30.06,South,180,0.0,0.0,86,0.00,CLR,,0.00,WeatherDisplay:10.37,2013-06-21 13:22:00,
2013-06-21 08:27:00,73.9,69.8,30.09,South,180,0.0,0.0,87,0.00,CLR,,0.00,WeatherDisplay:10.37,2013-06-21 13:27:00,
2013-06-21 08:32:00,74.3,69.8,30.09,South,180,0.0,0.0,86,0.00,CLR,,0.00,WeatherDisplay:10.37,2013-06-21 13:32:00,
2013-06-21 08:37:00,74.7,70.5,30.09,South,180,0.0,0.0,87,0.00,CLR,,0.00,WeatherDisplay:10.37,2013-06-21 13:37:00,
2013-06-21 08:42:00,75.0,70.5,30.09,SSE,158,0.0,0.0,86,0.00,CLR,,0.00,WeatherDisplay:10.37,2013-06-21 13:42:00,
2013-06-21 08:47:00,75.4,70.9,30.09,SE,135,0.0,0.0,86,0.00,CLR,,0.00,WeatherDisplay:10.37,2013-06-21 13:47:00,
2013-06-21 08:52:00,75.9,71.4,30.09,SSE,158,0.0,0.0,86,0.00,CLR,,0.00,WeatherDisplay:10.37,2013-06-21 13:52:00,
2013-06-21 08:57:00,76.6,72.1,30.06,South,180,0.0,0.0,86,0.00,CLR,,0.00,WeatherDisplay:10.37,2013-06-21 13:57:00,
2013-06-21 09:02:00,77.0,72.5,30.06,SE,135,0.0,0.0,86,0.00,CLR,,0.00,WeatherDisplay:10.37,2013-06-21 14:02:00,
2013-06-21 09:07:00,77.4,72.5,30.06,SSE,158,0.0,0.0,85,0.00,CLR,,0.00,WeatherDisplay:10.37,2013-06-21 14:07:00,
2013-06-21 09:12:00,77.9,72.3,30.06,South,180,0.0,0.0,83,0.00,CLR,,0.00,WeatherDisplay:10.37,2013-06-21 14:12:00,
2013-06-21 09:17:00,78.6,72.7,30.06,SE,135,0.0,0.0,82,0.00,CLR,,0.00,WeatherDisplay:10.37,2013-06-21 14:17:00,
2013-06-21 09:22:00,79.2,72.1,30.06,SSW,202,0.0,0.0,79,0.00,CLR,,0.00,WeatherDisplay:10.37,2013-06-21 14:22:00,
2013-06-21 09:27:00,79.5,71.3,30.06,SSE,158,0.0,0.0,76,0.00,CLR,,0.00,WeatherDisplay:10.37,2013-06-21 14:27:00,
2013-06-21 09:32:00,79.5,66.7,30.06,SSE,158,6.9,6.9,65,0.00,CLR,,0.00,WeatherDisplay:10.37,2013-06-21 14:32:00,
2013-06-21 09:38:00,79.9,62.8,30.06,SE,135,3.5,3.5,56,0.00,CLR,,0.00,WeatherDisplay:10.37,2013-06-21 14:38:00,
2013-06-21 09:43:00,80.2,59.3,30.09,SE,135,4.6,4.6,49,0.00,CLR,,0.00,WeatherDisplay:10.37,2013-06-21 14:43:00,
2013-06-21 09:48:00,80.8,59.8,30.09,SSE,158,1.6,0.0,49,0.00,CLR,,0.00,WeatherDisplay:10.37,2013-06-21 14:48:00,
2013-06-21 09:53:00,81.0,58.2,30.09,SE,135,3.5,3.5,46,0.00,CLR,,0.00,WeatherDisplay:10.37,2013-06-21 14:53:00,
2013-06-21 09:58:00,81.3,56.0,30.06,SE,135,6.9,6.9,42,0.00,CLR,,0.00,WeatherDisplay:10.37,2013-06-21 14:58:00,
2013-06-21 10:03:00,81.9,55.2,30.06,SE,135,0.0,0.0,40,0.00,CLR,,0.00,WeatherDisplay:10.37,2013-06-21 15:03:00,
2013-06-21 10:08:00,82.0,52.4,30.06,SE,135,3.5,3.5,36,0.00,CLR,,0.00,WeatherDisplay:10.37,2013-06-21 15:08:00,
2013-06-21 10:13:00,82.8,55.3,30.09,SE,135,2.3,2.3,39,0.00,CLR,,0.00,WeatherDisplay:10.37,2013-06-21 15:13:00,
2013-06-21 10:18:00,83.3,54.3,30.09,South,180,1.2,1.4,37,0.00,CLR,,0.00,WeatherDisplay:10.37,2013-06-21 15:18:00,
2013-06-21 10:23:00,83.3,52.8,30.09,WNW,292,0.0,0.0,35,0.00,CLR,,0.00,WeatherDisplay:10.37,2013-06-21 15:23:00,
2013-06-21 10:28:00,83.3,52.0,30.09,SE,135,1.2,0.0,34,0.00,CLR,,0.00,WeatherDisplay:10.37,2013-06-21 15:28:00,
2013-06-21 10:33:00,83.3,51.2,30.09,SE,135,0.0,0.0,33,0.00,CLR,,0.00,WeatherDisplay:10.37,2013-06-21 15:33:00,
2013-06-21 10:38:00,83.5,50.5,30.09,SE,135,2.3,2.3,32,0.00,CLR,,0.00,WeatherDisplay:10.37,2013-06-21 15:38:00,
2013-06-21 10:43:00,83.5,49.7,30.09,SE,135,3.5,3.5,31,0.00,CLR,,0.00,WeatherDisplay:10.37,2013-06-21 15:43:00,
2013-06-21 10:48:00,84.0,50.1,30.09,SE,135,0.0,0.0,31,0.00,CLR,,0.00,WeatherDisplay:10.37,2013-06-21 15:48:00,
2013-06-21 10:53:00,84.2,49.4,30.09,SE,135,4.6,4.6,30,0.00,CLR,,0.00,WeatherDisplay:10.37,2013-06-21 15:53:00,
2013-06-21 10:58:00,84.0,48.3,30.09,SSE,158,5.8,5.8,29,0.00,CLR,,0.00,WeatherDisplay:10.37,2013-06-21 15:58:00,
2013-06-21 11:03:00,84.7,49.0,30.09,South,180,0.0,0.9,29,0.00,CLR,,0.00,WeatherDisplay:10.37,2013-06-21 16:03:00,
2013-06-21 11:08:00,85.1,48.3,30.09,SSE,158,5.8,5.8,28,0.00,CLR,,0.00,WeatherDisplay:10.37,2013-06-21 16:08:00,
2013-06-21 11:13:00,85.1,46.4,30.09,SSE,158,5.8,5.8,26,0.00,CLR,,0.00,WeatherDisplay:10.37,2013-06-21 16:13:00,
2013-06-21 11:18:00,85.8,48.9,30.09,South,180,0.0,0.9,28,0.00,CLR,,0.00,WeatherDisplay:10.37,2013-06-21 16:18:00,
2013-06-21 11:23:00,86.0,48.1,30.09,SE,135,3.5,3.5,27,0.00,CLR,,0.00,WeatherDisplay:10.37,2013-06-21 16:23:00,
2013-06-21 11:28:00,86.4,48.4,30.09,South,180,0.0,0.0,27,0.00,CLR,,0.00,WeatherDisplay:10.37,2013-06-21 16:28:00,
2013-06-21 11:33:00,86.5,47.6,30.09,SE,135,0.0,0.0,26,0.00,CLR,,0.00,WeatherDisplay:10.37,2013-06-21 16:33:00,
2013-06-21 11:39:00,86.5,44.3,30.09,SE,135,1.2,1.6,23,0.00,CLR,,0.00,WeatherDisplay:10.37,2013-06-21 16:39:00,
2013-06-21 11:44:00,86.7,43.3,30.06,SSE,158,4.6,4.6,22,0.00,CLR,,0.00,WeatherDisplay:10.37,2013-06-21 16:44:00,
2013-06-21 11:49:00,87.1,43.6,30.06,South,180,1.2,0.0,22,0.00,CLR,,0.00,WeatherDisplay:10.37,2013-06-21 16:49:00,
2013-06-21 11:54:00,87.1,42.4,30.06,SE,135,4.6,4.6,21,0.00,CLR,,0.00,WeatherDisplay:10.37,2013-06-21 16:54:00,
2013-06-21 11:59:00,88.0,44.4,30.06,South,180,0.0,0.0,22,0.00,CLR,,0.00,WeatherDisplay:10.37,2013-06-21 16:59:00,
2013-06-21 12:04:00,88.9,45.1,30.06,SE,135,0.0,0.0,22,0.00,CLR,,0.00,WeatherDisplay:10.37,2013-06-21 17:04:00,
2013-06-21 12:10:00,88.0,41.9,30.06,SE,135,2.3,2.3,20,0.00,CLR,,0.00,WeatherDisplay:10.37,2013-06-21 17:10:00,
2013-06-21 12:15:00,88.5,43.6,30.06,SSE,158,4.6,4.6,21,0.00,CLR,,0.00,WeatherDisplay:10.37,2013-06-21 17:15:00,
2013-06-21 12:20:00,88.5,42.3,30.06,SE,135,4.6,4.6,20,0.00,CLR,,0.00,WeatherDisplay:10.37,2013-06-21 17:20:00,
2013-06-21 12:26:00,88.9,42.6,30.06,SSE,158,2.3,0.0,20,0.00,CLR,,0.00,WeatherDisplay:10.37,2013-06-21 17:26:00,
2013-06-21 12:31:00,89.1,41.4,30.06,SSE,158,3.5,0.0,19,0.00,CLR,,0.00,WeatherDisplay:10.37,2013-06-21 17:31:00,
2013-06-21 12:37:00,88.3,43.4,30.06,NE,45,0.0,0.0,21,0.00,CLR,,0.00,WeatherDisplay:10.37,2013-06-21 17:37:00,
2013-06-21 12:42:00,89.4,44.3,30.03,NNE,22,0.0,0.0,21,0.00,CLR,,0.00,WeatherDisplay:10.37,2013-06-21 17:42:00,
2013-06-21 12:46:00,90.3,43.8,30.03,SSE,158,2.3,2.3,20,0.00,CLR,,0.00,WeatherDisplay:10.37,2013-06-21 17:46:00,
2013-06-21 12:47:00,90.5,43.9,30.03,SSE,158,2.3,2.3,20,0.00,CLR,,0.00,WeatherDisplay:10.37,2013-06-21 17:47:00,
2013-06-21 12:48:00,90.3,42.5,30.03,SSE,158,3.5,3.5,19,0.00,CLR,,0.00,WeatherDisplay:10.37,2013-06-21 17:48:00,
2013-06-21 12:53:00,90.5,41.2,30.03,SE,135,2.3,2.3,18,0.00,CLR,,0.00,WeatherDisplay:10.37,2013-06-21 17:53:00,
2013-06-21 12:59:00,91.6,43.5,30.03,South,180,0.0,0.0,19,0.00,CLR,,0.00,WeatherDisplay:10.37,2013-06-21 17:59:00,
2013-06-21 13:04:00,92.5,42.8,30.03,SE,135,3.5,3.5,18,0.00,CLR,,0.00,WeatherDisplay:10.37,2013-06-21 18:04:00,
2013-06-21 13:09:00,92.3,42.7,30.03,WSW,248,0.0,0.0,18,0.00,CLR,,0.00,WeatherDisplay:10.37,2013-06-21 18:09:00,
2013-06-21 13:14:00,92.5,42.8,30.03,SW,225,2.3,2.3,18,0.00,CLR,,0.00,WeatherDisplay:10.37,2013-06-21 18:14:00,
2013-06-21 13:19:00,93.0,43.2,30.03,South,180,0.0,0.0,18,0.00,CLR,,0.00,WeatherDisplay:10.37,2013-06-21 18:19:00,
2013-06-21 13:23:00,91.0,41.6,30.03,WSW,248,0.0,0.0,18,0.00,CLR,,0.00,WeatherDisplay:10.37,2013-06-21 18:23:00,
2013-06-21 13:24:00,91.0,41.6,30.03,WSW,248,0.0,0.0,18,0.00,CLR,,0.00,WeatherDisplay:10.37,2013-06-21 18:24:00,
2013-06-21 13:29:00,91.4,41.9,30.03,South,180,2.3,0.0,18,0.00,CLR,,0.00,WeatherDisplay:10.37,2013-06-21 18:29:00,
2013-06-21 13:34:00,90.3,41.1,30.03,SSE,158,0.0,0.0,18,0.00,CLR,,0.00,WeatherDisplay:10.37,2013-06-21 18:34:00,
2013-06-21 13:39:00,89.1,41.4,30.03,SSE,158,0.0,0.0,19,0.00,CLR,,0.00,WeatherDisplay:10.37,2013-06-21 18:39:00,
2013-06-21 13:44:00,91.2,43.2,30.00,SSE,158,0.0,0.0,19,0.00,CLR,,0.00,WeatherDisplay:10.37,2013-06-21 18:44:00,
2013-06-21 13:45:00,91.2,43.2,30.00,SSE,158,0.0,0.0,19,0.00,CLR,,0.00,WeatherDisplay:10.37,2013-06-21 18:45:00,
2013-06-21 13:46:00,91.4,43.3,30.00,SSE,158,0.0,0.0,19,0.00,CLR,,0.00,WeatherDisplay:10.37,2013-06-21 18:46:00,
2013-06-21 13:51:00,91.4,41.9,30.00,SE,135,2.3,4.0,18,0.00,CLR,,0.00,WeatherDisplay:10.37,2013-06-21 18:51:00,
2013-06-21 13:56:00,91.8,42.2,30.06,South,180,3.5,3.5,18,0.00,CLR,,0.00,WeatherDisplay:10.37,2013-06-21 18:56:00,
2013-06-21 14:01:00,91.0,41.6,30.06,SE,135,0.0,0.0,18,0.00,CLR,,0.00,WeatherDisplay:10.37,2013-06-21 19:01:00,
2013-06-21 14:06:00,91.2,41.8,30.06,SSE,158,1.2,0.0,18,0.00,CLR,,0.00,WeatherDisplay:10.37,2013-06-21 19:06:00,
2013-06-21 14:12:00,91.8,40.7,30.03,South,180,5.8,5.8,17,0.00,CLR,,0.00,WeatherDisplay:10.37,2013-06-21 19:12:00,
2013-06-21 14:17:00,92.3,41.2,30.03,South,180,1.2,0.0,17,0.00,CLR,,0.00,WeatherDisplay:10.37,2013-06-21 19:17:00,
2013-06-21 14:21:00,93.0,41.8,30.03,South,180,0.0,0.0,17,0.00,CLR,,0.00,WeatherDisplay:10.37,2013-06-21 19:21:00,
2013-06-21 14:26:00,93.7,42.3,30.03,ENE,68,1.2,0.0,17,0.00,CLR,,0.00,WeatherDisplay:10.37,2013-06-21 19:26:00,
2013-06-21 14:31:00,92.8,41.6,30.03,South,180,4.6,0.0,17,0.00,CLR,,0.00,WeatherDisplay:10.37,2013-06-21 19:31:00,
2013-06-21 14:36:00,90.9,40.0,30.03,South,180,5.8,5.8,17,0.00,CLR,,0.00,WeatherDisplay:10.37,2013-06-21 19:36:00,
2013-06-21 14:41:00,88.9,38.4,30.00,South,180,0.0,0.0,17,0.00,CLR,,0.00,WeatherDisplay:10.37,2013-06-21 19:41:00,
2013-06-21 14:42:00,88.7,39.7,30.00,South,180,0.0,0.0,18,0.00,CLR,,0.00,WeatherDisplay:10.37,2013-06-21 19:42:00,
2013-06-21 14:47:00,88.7,39.7,30.00,South,180,0.0,0.0,18,0.00,CLR,,0.00,WeatherDisplay:10.37,2013-06-21 19:47:00,
2013-06-21 14:52:00,90.3,41.1,30.00,WSW,248,1.2,1.2,18,0.00,CLR,,0.00,WeatherDisplay:10.37,2013-06-21 19:52:00,
2013-06-21 14:57:00,90.0,40.8,30.00,South,180,0.0,0.0,18,0.00,CLR,,0.00,WeatherDisplay:10.37,2013-06-21 19:57:00,
2013-06-21 15:02:00,89.4,40.3,30.00,SSE,158,5.8,5.8,18,0.00,CLR,,0.00,WeatherDisplay:10.37,2013-06-21 20:02:00,
2013-06-21 15:04:00,89.1,40.0,30.00,SSE,158,1.2,0.0,18,0.00,CLR,,0.00,WeatherDisplay:10.37,2013-06-21 20:04:00,
2013-06-21 15:09:00,89.1,40.0,30.00,SSE,158,0.0,0.0,18,0.00,CLR,,0.00,WeatherDisplay:10.37,2013-06-21 20:09:00,
2013-06-21 15:10:00,89.4,40.3,30.03,SSE,158,0.0,0.0,18,0.00,CLR,,0.00,WeatherDisplay:10.37,2013-06-21 20:10:00,
2013-06-21 15:11:00,89.8,40.6,30.03,SSE,158,0.0,0.0,18,0.00,CLR,,0.00,WeatherDisplay:10.37,2013-06-21 20:11:00,
2013-06-21 15:16:00,89.6,40.5,30.03,SE,135,4.6,4.6,18,0.00,CLR,,0.00,WeatherDisplay:10.37,2013-06-21 20:16:00,
2013-06-21 15:21:00,88.7,39.7,30.03,SE,135,2.3,0.0,18,0.00,CLR,,0.00,WeatherDisplay:10.37,2013-06-21 20:21:00,
2013-06-21 15:26:00,87.8,39.0,30.03,SSE,158,1.2,2.2,18,0.00,CLR,,0.00,WeatherDisplay:10.37,2013-06-21 20:26:00,
2013-06-21 15:31:00,87.8,39.0,30.03,SSE,158,0.0,0.0,18,0.00,CLR,,0.00,WeatherDisplay:10.37,2013-06-21 20:31:00,
2013-06-21 15:36:00,90.3,41.1,30.03,South,180,0.0,0.0,18,0.00,CLR,,0.00,WeatherDisplay:10.37,2013-06-21 20:36:00,
2013-06-21 15:41:00,91.2,41.8,30.00,SE,135,5.8,5.8,18,0.00,CLR,,0.00,WeatherDisplay:10.37,2013-06-21 20:41:00,
2013-06-21 15:46:00,90.9,40.0,30.00,South,180,8.1,8.1,17,0.00,CLR,,0.00,WeatherDisplay:10.37,2013-06-21 20:46:00,
2013-06-21 15:51:00,91.0,40.2,30.00,SSE,158,3.5,0.0,17,0.00,CLR,,0.00,WeatherDisplay:10.37,2013-06-21 20:51:00,
2013-06-21 15:56:00,91.9,40.9,30.00,West,270,0.0,0.0,17,0.00,CLR,,0.00,WeatherDisplay:10.37,2013-06-21 20:56:00,
2013-06-21 16:01:00,91.8,40.7,30.00,South,180,4.6,4.6,17,0.00,CLR,,0.00,WeatherDisplay:10.37,2013-06-21 21:01:00,
2013-06-21 16:04:00,91.8,40.7,30.00,SE,135,2.3,2.3,17,0.00,CLR,,0.00,WeatherDisplay:10.37,2013-06-21 21:04:00,
2013-06-21 16:09:00,91.6,40.6,30.00,SW,225,0.0,0.0,17,0.00,CLR,,0.00,WeatherDisplay:10.37,2013-06-21 21:09:00,
2013-06-21 16:14:00,92.1,41.0,30.00,SW,225,1.2,0.0,17,0.00,CLR,,0.00,WeatherDisplay:10.37,2013-06-21 21:14:00,
2013-06-21 16:19:00,93.0,41.8,30.00,SW,225,3.5,3.5,17,0.00,CLR,,0.00,WeatherDisplay:10.37,2013-06-21 21:19:00,
2013-06-21 16:24:00,91.8,40.7,30.00,SSE,158,5.8,5.8,17,0.00,CLR,,0.00,WeatherDisplay:10.37,2013-06-21 21:24:00,
2013-06-21 16:29:00,90.7,39.9,30.00,SSE,158,3.5,3.5,17,0.00,CLR,,0.00,WeatherDisplay:10.37,2013-06-21 21:29:00,
2013-06-21 16:34:00,88.9,38.4,30.00,SE,135,3.5,3.5,17,0.00,CLR,,0.00,WeatherDisplay:10.37,2013-06-21 21:34:00,
2013-06-21 16:39:00,88.2,39.3,30.00,SSE,158,4.6,4.6,18,0.00,CLR,,0.00,WeatherDisplay:10.37,2013-06-21 21:39:00,
2013-06-21 16:44:00,88.3,39.5,30.00,SSE,158,2.3,2.6,18,0.00,CLR,,0.00,WeatherDisplay:10.37,2013-06-21 21:44:00,
2013-06-21 16:49:00,88.7,38.3,30.00,SE,135,4.6,4.6,17,0.00,CLR,,0.00,WeatherDisplay:10.37,2013-06-21 21:49:00,
2013-06-21 16:54:00,89.1,38.6,30.00,SE,135,4.6,4.6,17,0.00,CLR,,0.00,WeatherDisplay:10.37,2013-06-21 21:54:00,
2013-06-21 16:59:00,87.8,39.0,29.97,South,180,8.1,8.1,18,0.00,CLR,,0.00,WeatherDisplay:10.37,2013-06-21 21:59:00,
2013-06-21 17:04:00,86.2,39.1,29.97,SE,135,4.6,4.6,19,0.00,CLR,,0.00,WeatherDisplay:10.37,2013-06-21 22:04:00,
2013-06-21 17:09:00,84.9,38.0,29.97,South,180,2.3,3.3,19,0.00,CLR,,0.00,WeatherDisplay:10.37,2013-06-21 22:09:00,
2013-06-21 17:14:00,84.4,38.9,30.00,South,180,3.5,3.5,20,0.00,CLR,,0.00,WeatherDisplay:10.37,2013-06-21 22:14:00,
2013-06-21 17:19:00,84.9,39.4,30.00,South,180,1.2,0.0,20,0.00,CLR,,0.00,WeatherDisplay:10.37,2013-06-21 22:19:00,
2013-06-21 17:24:00,83.1,37.9,30.00,SE,135,10.4,10.4,20,0.00,CLR,,0.00,WeatherDisplay:10.37,2013-06-21 22:24:00,
2013-06-21 17:29:00,80.8,37.2,30.00,SE,135,4.6,4.6,21,0.00,CLR,,0.00,WeatherDisplay:10.37,2013-06-21 22:29:00,
2013-06-21 17:34:00,79.3,37.2,30.00,SE,135,5.8,5.8,22,0.00,CLR,,0.00,WeatherDisplay:10.37,2013-06-21 22:34:00,
2013-06-21 17:39:00,79.0,36.9,30.00,SSW,202,5.8,5.8,22,0.00,CLR,,0.00,WeatherDisplay:10.37,2013-06-21 22:39:00,
2013-06-21 17:44:00,79.0,36.9,30.03,SE,135,3.6,3.6,22,0.00,CLR,,0.00,WeatherDisplay:10.37,2013-06-21 22:44:00,
2013-06-21 17:49:00,79.0,36.9,30.03,SSE,158,0.0,0.0,22,0.00,CLR,,0.00,WeatherDisplay:10.37,2013-06-21 22:49:00,
2013-06-21 17:54:00,79.0,36.9,30.03,SE,135,0.0,0.0,22,0.04,RA,,0.04,WeatherDisplay:10.37,2013-06-21 22:54:00,
2013-06-21 17:59:00,79.0,36.9,30.03,SE,135,0.0,0.0,22,0.04,RA,,0.04,WeatherDisplay:10.37,2013-06-21 22:59:00,
2013-06-21 18:05:00,79.0,36.9,30.03,SE,135,0.0,0.0,22,0.04,CLR,,0.04,WeatherDisplay:10.37,2013-06-21 23:05:00,
2013-06-21 18:10:00,79.0,36.9,30.03,South,180,0.0,0.0,22,0.04,CLR,,0.04,WeatherDisplay:10.37,2013-06-21 23:10:00,
2013-06-21 18:15:00,79.0,36.9,30.03,WSW,248,0.0,0.0,22,0.04,CLR,,0.04,WeatherDisplay:10.37,2013-06-21 23:15:00,
2013-06-21 18:20:00,79.0,36.9,30.03,WSW,248,0.0,0.0,22,0.04,CLR,,0.04,WeatherDisplay:10.37,2013-06-21 23:20:00,
2013-06-21 18:25:00,79.0,36.9,30.03,West,270,0.0,0.0,22,0.04,CLR,,0.04,WeatherDisplay:10.37,2013-06-21 23:25:00,
2013-06-21 18:30:00,79.0,36.9,30.03,SW,225,0.0,0.0,22,0.04,CLR,,0.04,WeatherDisplay:10.37,2013-06-21 23:30:00,
2013-06-21 18:35:00,79.0,36.9,30.03,SW,225,0.0,0.0,22,0.04,CLR,,0.04,WeatherDisplay:10.37,2013-06-21 23:35:00,
2013-06-21 18:40:00,79.0,36.9,30.03,SW,225,0.0,0.0,22,0.04,CLR,,0.04,WeatherDisplay:10.37,2013-06-21 23:40:00,
2013-06-21 18:45:00,79.0,36.9,30.03,SW,225,0.0,0.0,22,0.04,CLR,,0.04,WeatherDisplay:10.37,2013-06-21 23:45:00,
2013-06-21 18:50:00,79.0,36.9,30.03,SW,225,0.0,0.0,22,0.04,CLR,,0.04,WeatherDisplay:10.37,2013-06-21 23:50:00,
2013-06-21 18:55:00,79.0,36.9,30.03,SW,225,0.0,0.0,22,0.00,CLR,,0.04,WeatherDisplay:10.37,2013-06-21 23:55:00,
2013-06-21 19:00:00,75.6,55.1,30.03,SW,225,0.0,0.0,49,0.00,CLR,,0.04,WeatherDisplay:10.37,2013-06-22 00:00:00,
2013-06-21 19:05:00,75.6,55.1,30.03,SW,225,0.0,0.0,49,0.00,CLR,,0.04,WeatherDisplay:10.37,2013-06-22 00:05:00,
2013-06-21 19:10:00,75.9,55.4,30.03,SW,225,0.0,0.0,49,0.00,CLR,,0.04,WeatherDisplay:10.37,2013-06-22 00:10:00,
2013-06-21 19:15:00,75.9,55.9,30.03,SW,225,0.0,0.0,50,0.00,CLR,,0.04,WeatherDisplay:10.37,2013-06-22 00:15:00,
2013-06-21 19:20:00,76.1,56.1,30.03,SW,225,0.0,0.0,50,0.00,CLR,,0.04,WeatherDisplay:10.37,2013-06-22 00:20:00,
2013-06-21 19:25:00,76.1,56.1,30.03,SSW,202,0.0,0.0,50,0.00,CLR,,0.04,WeatherDisplay:10.37,2013-06-22 00:25:00,
2013-06-21 19:30:00,76.3,56.8,30.03,SSW,202,0.0,0.0,51,0.00,CLR,,0.04,WeatherDisplay:10.37,2013-06-22 00:30:00,
2013-06-21 19:35:00,76.3,57.4,30.03,SSW,202,0.0,0.0,52,0.00,CLR,,0.04,WeatherDisplay:10.37,2013-06-22 00:35:00,
2013-06-21 19:40:00,76.1,56.7,30.03,SSW,202,0.0,0.0,51,0.00,CLR,,0.04,WeatherDisplay:10.37,2013-06-22 00:40:00,
2013-06-21 19:45:00,76.3,57.9,30.03,SSW,202,0.0,0.0,53,0.00,CLR,,0.04,WeatherDisplay:10.37,2013-06-22 00:45:00,
2013-06-21 19:50:00,76.3,57.9,30.03,SSW,202,0.0,0.0,53,0.00,CLR,,0.04,WeatherDisplay:10.37,2013-06-22 00:50:00,
2013-06-21 19:55:00,76.3,57.9,30.03,SSW,202,0.0,0.0,53,0.00,CLR,,0.04,WeatherDisplay:10.37,2013-06-22 00:55:00,
2013-06-21 20:00:00,76.3,57.9,30.03,SSW,202,0.0,0.0,53,0.00,CLR,,0.04,WeatherDisplay:10.37,2013-06-22 01:00:00,
2013-06-21 20:05:00,76.1,57.7,30.03,SSW,202,0.0,0.0,53,0.00,CLR,,0.04,WeatherDisplay:10.37,2013-06-22 01:05:00,
2013-06-21 20:10:00,75.9,57.0,30.03,SSW,202,0.0,0.0,52,0.00,CLR,,0.04,WeatherDisplay:10.37,2013-06-22 01:10:00,
2013-06-21 20:15:00,75.7,57.4,30.03,SSW,202,0.0,0.0,53,0.00,CLR,,0.04,WeatherDisplay:10.37,2013-06-22 01:15:00,
2013-06-21 20:20:00,75.6,57.2,30.03,SSW,202,0.0,0.0,53,0.00,CLR,,0.04,WeatherDisplay:10.37,2013-06-22 01:20:00,
2013-06-21 20:25:00,75.4,57.1,30.03,SSW,202,0.0,0.0,53,0.00,CLR,,0.04,WeatherDisplay:10.37,2013-06-22 01:25:00,
2013-06-21 20:30:00,75.4,57.6,30.03,SSW,202,0.0,0.0,54,0.00,CLR,,0.04,WeatherDisplay:10.37,2013-06-22 01:30:00,
2013-06-21 20:35:00,75.2,57.9,30.03,SSW,202,0.0,0.0,55,0.00,CLR,,0.04,WeatherDisplay:10.37,2013-06-22 01:35:00,
2013-06-21 20:40:00,75.2,57.9,30.03,SSW,202,0.0,0.0,55,0.00,CLR,,0.04,WeatherDisplay:10.37,2013-06-22 01:40:00,
2013-06-21 20:45:00,74.8,57.6,30.03,SSW,202,0.0,0.0,55,0.00,CLR,,0.04,WeatherDisplay:10.37,2013-06-22 01:45:00,
2013-06-21 20:50:00,74.7,57.4,30.03,SSW,202,0.0,0.0,55,0.00,CLR,,0.04,WeatherDisplay:10.37,2013-06-22 01:50:00,
2013-06-21 20:55:00,74.7,57.9,30.03,SSW,202,0.0,0.0,56,0.00,CLR,,0.04,WeatherDisplay:10.37,2013-06-22 01:55:00,
2013-06-21 21:00:00,74.7,57.9,30.03,SSW,202,0.0,0.0,56,0.00,CLR,,0.04,WeatherDisplay:10.37,2013-06-22 02:00:00,
2013-06-21 21:05:00,74.5,57.8,30.03,SSW,202,0.0,0.0,56,0.00,CLR,,0.04,WeatherDisplay:10.37,2013-06-22 02:05:00,
2013-06-21 21:10:00,74.3,58.1,30.03,SSW,202,0.0,0.0,57,0.00,CLR,,0.04,WeatherDisplay:10.37,2013-06-22 02:10:00,
2013-06-21 21:15:00,74.3,58.1,30.03,SSW,202,0.0,0.0,57,0.00,CLR,,0.04,WeatherDisplay:10.37,2013-06-22 02:15:00,
2013-06-21 21:20:00,74.1,57.9,30.03,SSW,202,0.0,0.0,57,0.00,CLR,,0.04,WeatherDisplay:10.37,2013-06-22 02:20:00,
2013-06-21 21:25:00,74.1,58.4,30.03,SSW,202,0.0,0.0,58,0.00,CLR,,0.04,WeatherDisplay:10.37,2013-06-22 02:25:00,
2013-06-21 21:30:00,73.9,58.2,30.03,SSW,202,0.0,0.0,58,0.00,CLR,,0.04,WeatherDisplay:10.37,2013-06-22 02:30:00,
2013-06-21 21:35:00,73.9,58.7,30.03,SSW,202,0.0,0.0,59,0.00,CLR,,0.04,WeatherDisplay:10.37,2013-06-22 02:35:00,
2013-06-21 21:40:00,73.8,58.5,30.03,SSW,202,0.0,0.0,59,0.00,CLR,,0.04,WeatherDisplay:10.37,2013-06-22 02:40:00,
2013-06-21 21:45:00,73.8,58.5,30.03,SSW,202,0.0,0.0,59,0.00,CLR,,0.04,WeatherDisplay:10.37,2013-06-22 02:45:00,
2013-06-21 21:50:00,73.8,58.5,30.03,SSW,202,0.0,0.0,59,0.00,CLR,,0.04,WeatherDisplay:10.37,2013-06-22 02:50:00,
2013-06-21 21:55:00,73.6,58.8,30.00,SSW,202,0.0,0.0,60,0.00,CLR,,0.04,WeatherDisplay:10.37,2013-06-22 02:55:00,
2013-06-21 22:00:00,73.4,58.7,30.00,SSW,202,0.0,0.0,60,0.00,CLR,,0.04,WeatherDisplay:10.37,2013-06-22 03:00:00,
2013-06-21 22:05:00,73.4,58.7,30.00,SSW,202,0.0,0.0,60,0.00,CLR,,0.04,WeatherDisplay:10.37,2013-06-22 03:05:00,
2013-06-21 22:10:00,73.4,58.7,30.00,SSW,202,0.0,0.0,60,0.00,CLR,,0.04,WeatherDisplay:10.37,2013-06-22 03:10:00,
2013-06-21 22:15:00,73.4,58.7,30.00,SSW,202,0.0,0.0,60,0.00,CLR,,0.04,WeatherDisplay:10.37,2013-06-22 03:15:00,
2013-06-21 22:20:00,73.6,59.8,30.00,SSW,202,0.0,0.0,62,0.00,CLR,,0.04,WeatherDisplay:10.37,2013-06-22 03:20:00,
2013-06-21 22:25:00,73.4,59.6,30.00,South,180,0.0,0.0,62,0.00,CLR,,0.04,WeatherDisplay:10.37,2013-06-22 03:25:00,
2013-06-21 22:30:00,73.4,59.6,30.00,South,180,0.0,0.0,62,0.00,CLR,,0.04,WeatherDisplay:10.37,2013-06-22 03:30:00,
2013-06-21 22:35:00,73.2,59.4,30.00,South,180,0.0,0.0,62,0.00,CLR,,0.04,WeatherDisplay:10.37,2013-06-22 03:35:00,
2013-06-21 22:40:00,73.2,59.4,30.03,South,180,0.0,0.0,62,0.00,CLR,,0.04,WeatherDisplay:10.37,2013-06-22 03:40:00,
2013-06-21 22:45:00,73.0,59.2,30.03,South,180,0.0,0.0,62,0.00,CLR,,0.04,WeatherDisplay:10.37,2013-06-22 03:45:00,
2013-06-21 22:50:00,72.9,59.1,30.03,South,180,0.0,0.0,62,0.00,CLR,,0.04,WeatherDisplay:10.37,2013-06-22 03:50:00,
2013-06-21 22:55:00,72.9,59.5,30.03,South,180,0.0,0.0,63,0.00,CLR,,0.04,WeatherDisplay:10.37,2013-06-22 03:55:00,
2013-06-21 23:00:00,72.9,59.5,30.03,South,180,0.0,0.0,63,0.00,CLR,,0.04,WeatherDisplay:10.37,2013-06-22 04:00:00,
2013-06-21 23:01:00,72.9,59.5,30.03,South,180,0.0,0.0,63,0.00,CLR,,0.04,WeatherDisplay:10.37,2013-06-22 04:01:00,
2013-06-21 23:06:00,72.9,60.0,30.03,South,180,0.0,0.0,64,0.00,CLR,,0.04,WeatherDisplay:10.37,2013-06-22 04:06:00,
2013-06-21 23:11:00,72.7,59.8,30.03,South,180,0.0,0.0,64,0.00,CLR,,0.04,WeatherDisplay:10.37,2013-06-22 04:11:00,
2013-06-21 23:16:00,72.7,59.8,30.03,South,180,0.0,0.0,64,0.00,CLR,,0.04,WeatherDisplay:10.37,2013-06-22 04:16:00,
2013-06-21 23:21:00,72.5,59.6,30.03,South,180,0.0,0.0,64,0.00,CLR,,0.04,WeatherDisplay:10.37,2013-06-22 04:21:00,
2013-06-21 23:26:00,72.5,60.1,30.03,South,180,0.0,0.0,65,0.00,CLR,,0.04,WeatherDisplay:10.37,2013-06-22 04:26:00,
2013-06-21 23:31:00,72.5,60.1,30.03,South,180,0.0,0.0,65,0.00,CLR,,0.04,WeatherDisplay:10.37,2013-06-22 04:31:00,
2013-06-21 23:36:00,72.5,60.5,30.03,South,180,0.0,0.0,66,0.00,CLR,,0.04,WeatherDisplay:10.37,2013-06-22 04:36:00,
2013-06-21 23:41:00,72.3,60.3,30.00,South,180,0.0,0.0,66,0.00,CLR,,0.04,WeatherDisplay:10.37,2013-06-22 04:41:00,
2013-06-21 23:46:00,72.1,60.2,30.00,South,180,0.0,0.0,66,0.00,CLR,,0.04,WeatherDisplay:10.37,2013-06-22 04:46:00,
2013-06-21 23:51:00,72.1,60.6,30.00,South,180,0.0,0.0,67,0.00,CLR,,0.04,WeatherDisplay:10.37,2013-06-22 04:51:00,
2013-06-21 23:56:00,72.1,61.0,30.03,South,180,0.0,0.0,68,0.00,CLR,,0.04,WeatherDisplay:10.37,2013-06-22 04:56:00,